Location: Penum?ka
(16.4840°N, 80.5772°E)
Time: 15:30:46
(UTC+00:00)

SPELTRA - Pass Details

Date: 19 May 2025
Orbit: 541 x 26585 km, 7.6° (Epoch: 17 June)

Event Time Altitude Azimuth Distance (km) Brightness Sun altitude
Exits shadow 21:58:16 32° 153° (SSE) 1,501 4.4 -28.0°
Drops below altitude 10° 22:05:50 10° 103° (ESE) 4,612 7.5 -26.5°
Sets 22:14:01 0° 95° (E) 8,040 9.0 -24.9°
